Theta_e
302 302 302 302 302 303 303 304 305 308 310 311 312 313 312 311 311 311 310 309 307 306 305 304 304 304 304 305 305 304 305 305 305 306 309 309 310 311 308 308 308 307 307 307 313 317 318 319 318 317 316 315 315 315 317 318 318 318 318 317 316 315 316 318 320 319 318 320 319 320 320 320 326 330 333 333 333 339 339 341 342 340 345 344 344 346 348 348
302 301 301 301 302 302 302 303 303 305 308 310 312 313 313 312 311 311 311 310 309 309 308 305 304 304 305 305 305 305 305 306 306 307 309 309 310 310 309 308 307 308 307 308 315 317 317 318 317 316 315 315 315 315 317 318 318 318 317 316 316 317 319 320 320 319 319 320 319 320 320 320 326 331 334 331 330 336 336 338 339 340 344 345 348 348 347 348
302 302 301 301 302 302 302 303 302 303 306 308 310 312 313 313 312 311 311 310 310 311 309 308 306 304 304 305 304 304 304 306 310 314 314 311 311 310 309 308 308 308 307 310 315 316 316 317 316 316 314 315 315 315 318 319 317 317 317 316 316 318 319 320 320 319 320 319 320 320 319 321 328 332 334 334 331 334 334 335 336 338 340 342 348 348 347 348
303 303 302 301 301 302 302 302 302 303 303 305 308 311 312 313 312 311 311 311 311 310 310 310 309 307 305 304 304 304 306 310 317 320 316 313 313 311 309 308 308 307 308 313 314 314 315 315 315 315 314 315 316 316 317 318 317 317 317 316 317 319 318 320 319 319 319 319 320 319 319 320 325 330 332 333 332 332 332 332 334 334 336 341 347 348 347 347
303 303 303 303 301 301 301 302 302 303 302 303 305 308 311 313 312 312 311 311 311 310 310 310 310 310 307 304 304 304 309 315 321 320 315 315 315 312 309 307 308 306 310 315 314 313 314 314 315 314 314 315 316 317 317 317 318 317 317 317 318 319 318 319 319 318 318 318 319 319 319 319 322 325 328 330 331 331 329 330 331 332 336 342 347 348 347 347
303 303 304 303 303 302 301 302 302 303 303 302 303 305 308 311 312 312 311 311 311 311 310 309 309 310 308 307 303 304 311 316 319 319 315 316 316 313 309 308 307 307 312 315 313 313 313 314 315 315 314 315 315 317 317 317 318 317 317 318 318 319 319 318 319 318 317 318 319 319 319 319 321 322 326 327 328 329 329 330 331 332 335 340 345 347 348 347
303 303 303 304 303 303 302 302 302 303 303 303 302 303 304 308 311 312 312 311 311 310 310 309 309 309 309 309 306 310 315 316 317 319 315 315 316 314 311 308 307 309 313 314 312 313 313 314 314 315 315 314 315 316 317 317 318 317 317 319 319 318 318 318 318 317 317 318 318 319 318 318 320 320 323 326 327 328 329 330 331 332 336 340 343 346 347 346
303 303 303 303 303 303 303 302 302 303 303 303 303 303 303 305 308 311 312 311 311 311 310 309 309 309 309 309 311 317 318 317 319 317 314 316 316 314 311 308 307 310 314 313 312 312 312 313 314 314 314 314 315 316 317 317 317 317 317 319 318 318 319 318 318 317 317 318 318 318 318 318 319 319 320 324 326 327 326 327 328 332 337 342 344 346 347 345
302 302 302 302 303 303 304 303 303 303 303 303 303 303 303 303 306 309 311 311 311 310 310 309 309 309 309 308 313 319 317 318 317 312 313 317 316 315 313 311 309 312 314 313 312 313 312 314 314 314 314 314 315 316 318 317 316 317 317 318 318 318 318 317 317 317 317 317 318 318 317 318 319 318 319 321 325 325 325 324 326 331 336 340 345 347 346 345
302 302 302 302 303 303 303 304 303 303 303 304 304 303 303 303 303 305 308 309 310 310 310 310 309 309 309 312 316 317 316 317 316 313 314 317 317 315 314 313 312 313 314 313 313 312 313 314 314 314 314 316 316 315 317 316 316 318 318 318 317 318 318 317 317 317 317 317 317 318 317 318 319 318 317 319 324 324 323 324 326 330 333 338 344 346 345 345
301 301 302 302 302 302 302 303 303 304 303 303 304 304 304 303 303 303 304 307 308 309 310 309 309 308 309 313 317 315 314 315 317 319 317 316 316 314 316 315 314 314 313 313 313 312 313 313 314 314 314 315 315 316 317 316 318 318 317 317 316 318 318 317 317 317 317 317 317 317 317 319 318 318 318 320 323 323 322 324 326 329 333 336 340 344 344 345
301 301 302 302 302 302 302 303 303 303 304 304 304 304 304 304 303 303 303 304 305 307 308 308 308 307 309 314 316 314 315 313 316 320 319 317 315 315 317 316 314 314 314 314 313 312 313 313 314 315 315 314 315 316 316 316 317 317 316 316 316 317 317 317 317 317 317 317 317 317 317 317 318 318 319 322 324 322 322 325 327 328 332 336 338 342 343 344
301 301 301 301 302 302 302 302 303 303 304 304 304 305 305 304 304 303 303 303 303 304 305 306 306 306 311 316 316 314 314 312 314 317 320 319 316 315 316 315 314 314 315 315 314 313 312 313 314 315 315 315 315 315 315 316 316 316 316 315 315 315 315 317 317 317 317 316 317 317 314 315 318 318 319 325 325 322 323 325 327 328 333 337 338 341 343 343
301 301 301 301 301 302 302 302 302 302 303 304 304 305 306 306 305 305 305 304 303 304 304 305 304 307 314 317 313 314 313 311 313 315 318 319 317 316 314 314 314 314 315 315 314 314 312 312 314 315 316 316 316 316 314 315 315 315 315 315 315 313 314 317 318 316 316 316 318 316 313 314 318 319 319 323 324 323 324 325 326 327 332 337 338 341 343 343
301 301 301 301 301 301 302 302 302 302 302 303 304 304 305 307 308 308 308 308 306 306 305 305 306 311 318 318 315 316 313 312 313 313 316 318 317 315 314 313 313 313 314 314 314 313 312 313 314 316 317 316 316 316 315 315 315 314 313 312 314 312 314 318 318 317 316 316 318 316 313 315 317 319 319 322 323 323 323 324 325 328 332 336 338 341 344 343
301 301 301 301 301 301 301 302 302 302 302 303 303 304 305 307 308 309 309 310 311 310 308 311 314 315 319 318 318 318 313 312 312 314 316 317 316 315 314 313 313 313 313 313 313 312 312 313 314 316 316 315 315 315 315 314 313 315 313 312 313 312 313 317 317 318 317 317 317 316 314 315 317 320 321 322 322 322 322 323 325 328 333 337 338 341 343 341
300 300 301 301 301 301 301 302 302 302 302 302 303 304 304 306 308 309 310 311 312 313 312 316 318 318 319 317 316 316 315 314 313 314 316 316 316 314 313 313 312 312 313 312 312 312 313 314 315 315 316 316 315 314 313 312 312 313 313 312 313 314 313 314 316 318 318 317 316 316 316 316 319 322 323 324 322 322 322 323 326 329 333 336 337 340 341 340
300 300 300 300 301 301 301 302 302 302 302 302 302 304 304 305 307 308 311 313 314 315 315 316 317 318 320 317 315 316 315 315 315 316 316 315 316 313 312 312 312 313 312 313 312 313 314 314 315 315 315 316 314 314 312 312 313 313 313 312 313 314 314 314 316 318 317 316 316 316 315 316 319 322 323 324 321 322 322 322 325 329 333 336 336 337 339 340
299 300 300 300 300 300 301 302 302 302 301 302 303 303 303 307 310 311 313 315 316 318 319 319 318 318 318 316 315 315 314 315 315 316 316 316 314 313 312 312 312 312 313 313 313 314 315 314 315 315 315 315 315 315 314 315 316 315 315 314 313 313 314 315 317 318 317 316 316 316 316 316 317 319 322 324 322 322 323 321 326 330 332 335 335 335 338 341
299 299 299 300 300 300 301 301 301 302 301 302 302 303 308 314 318 318 318 317 318 318 317 317 318 317 316 316 316 314 315 315 314 316 316 315 313 311 312 312 312 312 313 314 313 314 315 315 315 314 315 316 316 316 316 317 317 317 317 315 314 314 314 317 317 318 318 316 316 317 317 317 317 318 321 323 323 323 323 322 326 330 333 334 335 336 337 340
299 299 299 300 299 299 300 301 301 302 301 302 301 305 313 316 315 317 317 317 316 316 316 316 316 316 316 317 316 315 315 315 314 316 316 314 312 311 312 312 311 312 313 315 315 315 316 315 316 316 316 318 317 317 318 318 318 317 317 315 314 314 314 317 318 318 319 317 317 317 317 317 318 318 319 322 323 323 323 324 328 330 330 332 334 335 335 338
299 299 299 299 300 299 299 300 301 301 302 302 301 306 311 312 312 313 313 314 314 315 316 316 316 316 316 315 317 316 316 315 315 316 316 314 312 312 312 311 311 312 314 316 316 316 316 315 316 317 317 318 318 318 318 318 318 317 315 315 314 314 315 317 318 319 318 318 318 317 317 317 319 319 318 322 325 324 323 325 328 328 328 330 334 336 336 339
299 299 299 300 300 299 299 300 301 301 302 301 302 307 310 310 311 311 312 313 314 315 315 316 316 316 316 315 316 316 316 317 316 316 316 314 313 313 313 312 311 313 314 315 317 317 315 314 317 317 317 319 318 318 318 317 317 317 315 314 313 315 315 315 317 319 318 318 318 318 318 319 319 320 319 324 327 326 325 325 327 328 328 330 333 336 336 338
299 299 299 300 299 300 300 299 300 301 302 302 303 308 309 308 310 311 313 315 315 316 316 316 316 316 316 315 316 316 315 316 317 317 316 314 314 313 313 313 312 313 314 316 317 316 316 316 317 317 317 318 317 317 317 315 315 316 316 314 314 316 315 315 317 319 319 318 319 319 318 317 319 319 320 325 326 326 326 326 327 328 329 331 334 336 337 338
299 299 299 299 299 300 299 301 306 306 306 306 305 308 308 308 310 311 314 316 316 318 317 316 316 316 317 316 316 316 315 315 316 317 317 315 314 313 314 314 313 314 315 316 316 314 315 318 318 316 316 316 315 316 316 315 314 314 316 316 316 317 317 317 318 319 318 317 318 318 314 314 317 320 321 324 326 326 328 328 328 328 330 332 335 336 337 338
299 299 299 299 300 299 299 307 314 308 306 307 307 309 310 309 310 311 315 317 317 318 318 317 316 317 317 317 316 316 314 315 316 317 317 316 314 314 314 314 314 315 316 316 315 314 315 317 317 316 316 315 314 315 316 316 314 313 315 316 316 318 318 318 318 318 316 315 319 318 314 313 316 320 321 325 327 326 328 328 328 329 330 332 335 335 335 336
299 299 299 299 299 299 300 307 309 305 304 308 309 309 309 309 310 313 318 317 316 318 318 317 318 317 317 317 316 315 315 315 316 318 318 316 315 314 313 314 314 315 316 316 314 314 315 317 316 315 315 315 314 314 316 316 313 314 317 316 316 317 318 319 318 317 316 317 319 319 316 313 314 319 321 323 325 323 324 326 327 329 330 331 334 334 333 333
299 299 299 299 299 299 299 301 301 303 306 308 308 308 307 307 311 316 319 317 315 316 317 317 317 316 317 317 315 315 317 316 316 317 317 316 315 314 313 314 315 314 315 315 313 315 316 316 316 315 315 315 314 315 317 316 314 315 319 318 316 316 318 318 317 317 317 317 316 318 317 314 314 320 322 323 323 321 322 325 326 329 329 332 333 332 333 333
299 299 299 299 299 299 300 299 299 302 306 308 307 306 305 307 314 318 317 317 316 314 317 316 315 315 317 317 315 315 317 317 316 317 317 316 314 314 313 314 315 314 315 314 314 316 316 315 315 315 314 315 316 316 317 316 315 317 319 318 316 317 317 318 317 316 317 316 315 317 317 314 314 318 320 322 322 321 323 326 326 328 329 331 331 331 332 332
299 299 299 299 299 302 302 300 301 302 303 306 304 303 306 311 316 316 314 316 315 314 317 315 314 316 317 316 315 316 316 317 318 317 317 316 314 314 314 314 315 314 314 314 314 315 316 316 316 314 315 316 317 317 317 316 315 317 319 317 317 317 318 318 317 316 316 316 315 317 317 314 313 318 321 322 322 323 326 327 325 327 329 331 331 332 334 333
299 299 299 299 299 302 302 304 307 305 303 303 301 304 310 314 316 314 315 316 312 315 316 315 315 317 316 316 315 315 315 317 317 317 316 315 314 314 314 314 314 314 315 314 313 314 315 315 315 315 316 317 317 316 317 316 316 317 317 316 316 315 316 316 315 316 316 315 316 316 318 315 314 317 321 322 323 325 325 325 325 327 330 330 332 333 334 334
299 299 299 299 299 299 300 305 309 306 303 302 303 308 313 315 314 314 316 314 312 314 316 315 316 316 316 316 315 315 315 316 316 317 316 314 314 314 314 314 314 313 313 313 313 314 315 314 315 315 316 316 316 315 315 315 315 316 316 316 314 313 314 314 314 314 315 315 317 317 318 316 315 319 323 323 324 324 324 324 324 327 329 329 331 332 332 332
299 300 299 300 300 300 301 303 305 304 302 302 305 310 313 313 314 314 314 313 312 314 315 316 316 316 316 316 316 315 315 316 316 316 316 314 314 314 313 314 314 314 313 313 313 313 314 315 314 315 316 316 316 315 314 314 314 316 316 315 314 314 315 315 314 314 314 315 317 318 318 315 315 321 325 324 324 323 324 326 326 327 326 327 328 329 330 332
300 300 301 301 301 302 304 304 304 302 301 303 307 310 312 312 314 313 313 313 313 314 314 315 315 315 315 316 316 316 315 316 316 316 316 315 315 315 314 314 314 315 314 314 313 313 313 314 315 315 315 316 315 315 316 316 315 315 316 316 315 315 315 315 314 314 314 315 317 318 318 315 315 321 325 325 325 324 324 326 327 328 326 325 325 327 330 332
300 301 302 303 305 306 306 307 307 303 301 306 308 308 310 312 312 312 313 313 312 313 314 314 315 314 314 315 316 316 316 316 316 316 316 316 315 316 315 314 315 315 315 315 315 315 313 314 315 315 316 316 315 315 317 317 315 316 316 316 315 316 315 314 314 315 314 314 316 317 317 317 319 323 325 326 326 324 323 325 325 326 327 326 326 327 330 332
304 307 306 308 311 310 308 308 308 305 304 308 308 306 309 311 311 311 312 312 313 312 312 313 313 313 313 314 316 316 316 316 316 316 316 316 316 316 316 315 315 315 315 315 316 315 313 315 317 316 316 316 316 316 317 316 316 316 315 314 316 318 317 314 315 317 315 313 315 316 317 319 320 322 324 324 325 325 324 325 326 328 329 328 328 329 331 333
307 311 311 312 313 310 308 308 309 306 306 308 308 307 309 311 311 311 311 313 312 312 312 311 311 312 312 313 315 316 316 316 317 316 316 316 316 317 317 316 316 315 315 315 316 317 315 315 317 316 315 316 317 317 317 317 317 316 315 316 317 318 317 316 315 315 315 313 313 314 316 316 317 320 322 323 325 326 325 327 329 330 330 329 330 330 330 332
307 312 313 313 310 308 308 308 309 309 308 308 308 309 309 310 312 311 311 312 312 312 311 310 311 312 311 312 314 316 316 315 316 316 316 316 317 317 316 317 317 316 316 315 315 317 317 314 316 316 315 316 317 316 315 317 317 316 317 318 317 316 314 315 314 314 315 314 312 314 315 315 315 319 322 323 326 327 327 327 328 329 331 331 331 330 330 331
308 313 313 311 309 308 306 307 309 311 308 306 307 309 309 309 311 312 312 312 311 311 310 310 311 311 311 312 313 316 317 315 315 316 316 316 318 318 316 317 317 316 317 317 315 317 317 316 316 317 315 316 316 314 313 314 316 316 316 317 317 316 315 315 314 314 314 314 314 314 314 316 319 322 322 322 326 327 326 327 327 329 331 331 331 330 329 331
312 314 313 311 309 307 306 308 311 312 308 306 307 308 309 309 310 312 312 312 312 311 310 311 311 311 311 312 312 315 317 316 316 317 317 317 318 317 316 316 316 317 317 316 316 317 317 317 316 317 316 315 315 315 314 314 315 314 314 314 316 316 316 316 316 315 313 313 314 313 314 320 324 326 324 324 326 327 326 327 328 329 330 330 330 330 329 329
313 312 312 312 308 307 309 312 312 311 308 307 307 307 308 309 310 312 312 311 311 311 311 311 311 312 312 311 311 313 315 316 317 317 317 318 318 317 315 316 316 315 316 315 316 316 316 317 316 317 316 314 314 315 315 316 316 316 315 315 315 315 315 315 315 315 315 314 314 313 316 323 325 324 326 326 326 326 326 326 327 329 329 329 329 329 328 327
313 311 312 311 308 308 312 313 312 311 309 308 307 307 309 310 310 311 312 312 311 311 310 311 311 312 312 312 312 312 312 314 316 317 317 318 319 318 317 316 316 315 315 314 315 317 317 317 316 316 316 315 315 315 315 316 315 316 316 315 316 316 315 314 313 315 314 314 315 313 316 322 323 322 325 327 325 326 326 325 327 328 328 328 328 327 327 327
312 310 311 311 309 310 312 311 310 310 310 309 308 308 309 310 311 311 311 311 311 310 310 310 311 312 312 312 312 311 312 312 314 316 316 318 318 318 318 316 315 315 315 315 316 317 317 316 315 316 316 316 316 315 315 315 314 315 316 316 316 316 316 316 315 316 315 314 315 313 314 321 323 322 325 327 326 326 326 325 326 327 328 327 327 327 327 327
310 310 311 311 311 311 311 311 310 309 309 309 309 309 310 310 310 310 310 309 310 310 309 309 311 311 310 311 311 311 312 312 312 313 315 317 318 317 317 316 316 315 315 316 317 316 316 316 316 316 317 317 317 316 315 315 314 314 315 316 316 315 318 318 317 317 316 315 315 314 315 321 323 322 324 325 326 327 327 326 326 326 326 327 327 327 327 327
310 310 310 311 311 311 311 311 311 310 310 310 310 310 309 309 309 310 310 310 310 310 310 310 310 311 310 310 311 311 311 312 312 313 314 317 317 317 317 317 316 316 316 316 317 316 316 316 316 317 318 318 318 317 315 314 315 315 315 316 316 315 316 317 316 316 315 316 315 314 320 323 323 322 323 323 326 328 328 326 325 325 326 326 327 327 326 326
309 308 308 309 310 311 311 311 311 311 311 310 310 310 310 310 310 310 310 310 310 310 310 311 311 311 311 310 311 311 310 310 312 313 314 316 316 316 317 317 317 317 316 315 316 316 317 317 317 316 317 317 316 316 315 315 316 316 314 315 316 316 317 317 315 314 315 316 314 315 322 324 323 323 324 324 326 328 327 327 325 325 326 326 326 326 326 326
308 308 307 308 309 310 310 311 311 311 311 310 310 310 311 310 309 310 309 309 310 310 310 310 310 310 310 311 311 312 311 310 311 312 312 315 316 316 316 317 318 317 316 315 316 317 316 316 316 317 316 315 315 314 315 314 315 316 315 315 316 316 318 317 316 317 318 316 316 319 324 325 323 324 323 324 325 325 327 328 327 325 326 326 326 325 325 325
307 308 308 309 309 308 308 309 310 311 310 310 310 310 310 309 309 310 309 309 309 310 309 309 309 309 309 311 312 312 311 311 311 312 313 314 315 315 315 317 318 316 316 316 316 317 317 316 317 316 315 314 314 314 314 314 314 316 316 318 318 318 319 318 318 320 319 317 319 324 325 324 323 322 322 323 324 324 326 327 326 325 325 325 324 324 323 323
307 308 308 309 310 308 307 307 309 310 309 309 310 310 310 310 310 310 309 309 310 310 309 310 310 309 309 310 311 313 315 314 313 315 317 317 317 317 316 316 316 316 316 316 317 318 317 317 317 316 315 315 314 314 314 313 314 315 315 317 318 318 319 320 321 322 321 321 323 324 323 322 320 319 319 319 321 322 324 324 323 324 323 323 323 322 321 321
308 308 309 309 308 308 308 307 308 308 307 308 308 308 309 309 309 308 308 310 310 310 310 310 310 310 309 311 312 314 316 316 315 317 318 318 318 317 316 315 315 316 316 317 319 319 318 317 317 316 314 315 315 314 313 314 313 314 314 315 317 318 318 318 320 322 322 323 323 322 321 319 317 317 318 319 320 321 322 322 322 322 322 322 321 320 319 318
307 306 308 309 306 307 308 308 308 307 306 306 306 306 308 308 308 307 307 308 309 309 309 310 311 311 311 312 312 311 311 313 314 314 314 315 316 316 316 315 315 315 316 317 318 318 317 316 316 316 315 314 314 313 313 313 313 313 314 314 316 317 316 316 318 320 321 322 321 320 319 317 316 316 317 317 317 316 315 316 318 318 319 319 319 318 318 317
307 306 307 307 305 305 306 307 307 306 305 305 305 305 307 308 309 309 307 307 308 307 308 310 311 312 311 310 309 308 308 309 310 310 311 312 313 313 314 314 314 315 317 318 318 317 316 317 316 316 315 315 314 313 313 314 314 314 314 315 315 316 314 315 316 316 317 319 320 319 318 316 315 314 312 310 310 309 309 310 310 310 311 313 313 312 312 313
Wind_Speed
11 10 9 9 9 9 10 9 9 8 8 8 8 8 8 9 9 9 10 10 10 10 9 9 9 10 9 9 9 9 9 11 10 12 14 9 7 10 9 8 7 11 15 16 16 18 19 17 17 16 15 14 15 16 16 15 15 11 8 8 8 9 9 7 5 5 3 3 4 2 3 7 4 7 7 8 9 8 12 6 5 6 8 11 14 22 25 22
12 11 10 9 8 9 9 9 9 8 9 8 8 8 8 8 8 8 9 9 10 11 10 10 10 9 9 9 8 9 10 11 12 15 13 7 7 7 6 8 8 12 17 19 18 20 20 18 18 17 16 15 15 16 15 15 16 11 7 8 9 10 8 5 4 1 1 3 3 3 3 5 2 6 6 10 12 11 12 9 8 8 11 14 19 24 23 21
14 13 12 10 9 9 9 9 8 8 9 9 8 8 8 7 7 8 8 9 9 10 11 11 11 10 9 8 8 10 10 12 14 14 9 5 4 4 5 7 9 12 16 17 17 19 18 17 17 17 17 15 15 17 15 14 14 13 11 8 9 13 9 1 3 4 3 3 1 2 1 3 3 5 5 7 11 13 12 10 10 9 10 13 19 22 22 20
15 15 14 12 10 9 9 9 8 9 10 10 9 8 9 8 7 7 7 8 9 10 10 11 12 11 9 8 8 9 10 13 9 4 4 5 2 2 4 7 9 12 15 14 14 17 16 15 16 17 17 14 15 17 14 13 13 12 12 10 11 11 8 2 4 6 1 3 4 2 4 4 5 6 7 8 10 10 11 13 13 12 13 16 20 21 20 19
15 15 15 14 12 10 9 9 9 9 10 10 9 9 9 9 8 7 8 7 8 9 9 10 11 11 11 9 8 8 9 6 2 5 4 4 1 1 3 6 10 14 16 11 13 16 16 16 17 18 17 13 14 15 13 18 14 11 13 16 16 9 6 5 5 4 2 4 4 4 6 2 4 8 9 10 9 7 10 13 14 16 16 16 20 20 19 19
14 15 15 15 14 12 10 10 9 10 10 10 10 9 10 10 9 8 8 8 7 8 8 10 10 11 11 9 9 7 5 4 3 3 5 4 1 2 2 6 11 16 14 10 13 16 16 17 17 17 16 13 14 13 13 19 16 11 12 15 19 13 6 6 3 4 4 7 8 6 4 2 5 6 7 10 9 7 9 9 8 12 13 13 17 19 19 18
14 14 14 14 14 14 12 11 10 10 10 10 10 10 10 10 10 9 9 9 8 8 8 9 10 11 11 11 9 5 10 11 3 5 6 4 2 2 3 6 11 16 13 12 14 15 16 18 18 18 15 12 14 15 14 18 18 14 12 12 17 14 10 9 3 4 7 8 8 5 4 5 9 5 7 11 8 6 6 7 5 7 12 12 15 17 17 16
13 13 13 13 14 14 13 12 11 11 10 10 11 10 11 11 11 10 10 10 9 8 8 9 10 11 11 10 8 9 13 9 5 7 5 4 4 3 4 6 11 15 13 14 14 14 16 18 19 17 13 12 13 14 15 17 17 15 14 13 12 11 14 13 9 8 8 9 9 8 7 9 10 4 5 10 8 7 6 8 8 7 11 12 13 15 15 15
12 13 13 13 13 13 13 13 12 12 11 11 11 11 11 11 12 11 11 11 10 10 9 9 10 11 11 10 9 11 7 4 7 12 8 6 5 4 5 7 10 13 13 13 14 13 15 16 17 17 13 13 14 14 16 15 12 13 17 17 10 9 13 13 14 13 10 11 10 10 11 11 11 5 5 12 10 9 8 9 10 10 11 12 12 13 13 14
12 12 12 13 13 13 13 13 13 13 12 11 11 11 11 11 12 12 11 11 11 11 10 10 11 11 10 10 11 9 2 3 5 10 9 7 7 6 7 9 11 13 13 13 13 13 14 13 14 17 14 13 14 13 16 15 10 9 14 20 16 11 12 13 15 15 13 13 12 12 12 13 12 6 9 13 11 10 11 10 10 11 11 11 11 12 13 13
12 12 12 12 12 13 13 13 13 13 13 12 12 11 11 11 11 11 12 12 12 12 12 11 11 12 10 8 13 9 1 2 2 5 9 8 7 8 10 12 12 13 13 12 13 13 14 12 10 13 11 11 13 12 15 16 13 11 9 14 18 14 13 13 13 14 14 12 13 13 13 16 12 9 14 12 13 12 11 11 12 11 12 11 11 12 12 12
12 12 12 12 12 13 13 13 13 13 13 13 12 12 11 11 11 11 12 12 12 12 13 12 12 12 10 11 17 12 5 3 4 5 8 9 9 10 11 11 11 12 12 11 12 12 14 12 10 13 8 7 11 9 12 17 17 15 9 10 14 14 14 15 15 14 13 10 14 15 13 15 12 13 17 11 12 13 12 12 12 12 11 12 13 12 11 11
13 13 13 13 12 12 12 13 13 13 13 13 13 12 12 11 10 11 11 11 12 12 13 12 13 11 8 12 14 10 7 6 7 8 9 10 11 11 11 10 11 12 11 11 11 11 13 11 11 16 10 7 10 3 4 13 16 14 10 9 10 12 13 16 17 16 15 12 15 14 10 13 13 17 20 13 11 13 14 13 12 13 11 12 13 12 12 11
13 13 13 13 13 12 12 12 12 13 13 13 13 12 12 11 10 10 10 11 11 11 12 11 12 8 7 14 12 10 11 7 9 11 10 11 12 11 11 10 11 11 10 11 10 9 12 11 11 15 12 12 11 2 3 10 12 11 11 9 9 9 10 16 19 17 16 13 15 13 8 11 13 19 24 18 16 15 15 15 13 12 11 12 13 13 12 11
13 13 13 13 13 13 13 12 12 12 13 13 13 13 12 11 10 10 11 11 10 11 11 11 11 6 9 17 12 12 13 10 13 14 13 12 12 11 11 11 12 11 10 10 8 8 11 12 13 12 12 14 12 5 7 9 8 10 10 9 10 9 10 14 19 18 16 13 16 14 8 9 14 21 27 21 18 18 17 16 14 12 12 12 14 15 13 11
13 13 13 13 13 13 13 13 12 12 12 13 13 13 13 12 12 12 13 12 11 11 9 7 7 6 10 10 7 10 10 10 15 15 15 14 12 10 10 11 12 11 10 10 8 9 11 12 14 13 11 12 10 7 8 8 8 10 9 10 10 11 11 10 15 17 17 13 16 15 10 10 13 14 23 22 19 20 18 17 15 14 12 12 14 16 13 13
14 14 13 13 13 14 14 13 13 12 12 13 13 14 13 13 13 13 14 13 12 10 7 4 3 8 11 6 6 10 9 9 11 15 16 14 12 9 9 12 12 11 11 10 9 11 13 13 12 11 10 8 9 9 8 8 8 8 9 10 10 13 13 10 12 15 18 16 15 16 14 12 4 3 14 17 17 19 18 17 15 14 12 13 15 17 14 14
14 14 14 14 13 13 14 14 13 12 12 12 13 13 14 14 14 15 15 13 9 6 6 7 6 7 9 10 9 6 8 9 10 14 15 13 12 9 10 13 12 12 13 11 12 14 14 13 11 8 7 8 9 9 9 9 9 9 10 9 10 13 13 12 11 13 18 18 15 15 15 16 8 8 11 14 15 16 17 17 15 14 13 14 17 18 15 15
15 15 14 14 14 14 13 14 13 13 12 12 12 13 14 14 15 14 10 7 6 5 6 8 13 6 5 8 10 4 6 8 10 12 14 14 12 11 12 12 12 15 14 11 12 15 13 10 10 8 8 10 10 12 11 10 10 11 12 10 11 11 10 13 10 11 15 15 14 14 13 15 15 11 12 13 14 14 16 16 14 14 14 15 17 18 16 16
16 15 15 15 14 14 14 14 13 13 12 11 12 11 11 11 9 6 5 11 15 15 15 10 16 15 10 7 10 8 8 8 11 13 14 14 12 13 14 13 14 15 13 9 11 14 12 8 9 8 9 11 12 15 12 7 9 8 9 10 13 11 9 14 10 10 10 10 13 16 14 15 16 14 12 14 15 14 15 15 14 15 15 16 17 18 17 15
16 16 16 15 15 14 14 14 13 12 12 11 10 8 9 10 8 4 3 12 20 22 22 18 16 18 15 9 7 9 9 11 13 14 14 15 14 14 15 14 13 11 12 12 10 10 10 8 9 11 12 10 11 14 10 5 8 7 8 7 10 11 8 14 11 10 9 8 9 13 15 15 13 14 13 14 13 13 15 15 15 17 16 16 17 18 16 14
17 16 16 16 15 15 15 14 13 12 11 11 10 9 9 10 8 8 10 14 20 21 22 21 20 19 16 13 9 9 11 13 15 15 16 16 16 14 14 15 12 10 12 12 9 8 8 8 11 12 9 5 4 7 7 6 8 9 8 7 7 8 8 11 9 7 7 7 8 12 13 12 12 15 13 12 11 12 16 16 16 18 16 16 16 18 17 14
17 17 17 17 16 16 15 15 13 12 11 11 11 11 10 9 8 9 11 13 18 20 19 19 20 19 16 15 14 12 13 13 13 17 19 17 18 16 13 13 12 11 12 12 9 7 7 9 14 12 6 4 4 5 6 7 8 9 8 8 7 8 10 8 8 8 8 7 9 11 10 10 11 13 10 11 12 12 15 17 17 18 17 16 16 18 19 18
17 17 17 17 16 16 16 15 14 13 11 10 11 12 11 10 9 10 11 13 15 16 15 13 15 17 16 14 14 17 17 14 13 17 21 19 18 16 12 13 13 11 11 12 12 10 8 7 10 9 7 8 10 8 9 8 7 10 11 11 9 10 12 6 5 8 8 8 10 10 7 9 10 12 10 10 12 12 14 17 17 18 17 14 15 17 18 19
17 17 17 17 17 16 16 15 10 8 7 8 9 9 9 8 8 9 10 11 11 9 10 9 10 11 12 11 12 18 17 15 15 16 21 21 19 14 11 12 12 10 12 14 12 12 10 4 6 6 7 10 11 9 11 10 8 10 12 14 13 11 11 7 7 7 6 8 11 10 8 8 10 13 12 10 10 11 12 14 16 19 18 15 14 16 16 16
17 17 17 18 17 16 14 9 3 4 8 9 7 5 5 5 7 8 6 7 6 5 8 9 8 8 11 12 14 17 14 14 17 15 20 21 20 14 10 10 10 10 11 11 9 8 7 7 7 8 8 11 12 10 12 12 9 8 11 16 17 13 11 9 9 8 7 5 8 13 10 6 9 13 14 13 12 13 13 13 16 18 19 17 15 15 15 15
19 18 18 18 17 16 13 7 6 9 10 5 2 3 4 6 7 5 4 6 5 5 8 8 6 6 10 12 18 16 8 11 17 16 19 19 19 16 11 9 9 9 6 6 7 7 7 6 7 9 10 11 10 9 11 13 11 8 7 14 16 14 11 9 8 8 7 3 5 12 11 8 6 9 13 15 14 16 16 14 15 17 18 17 16 15 15 16
19 19 20 18 17 17 15 13 12 11 9 4 3 5 6 7 6 3 5 6 2 4 5 6 5 6 7 11 21 16 2 10 16 15 19 19 18 16 11 10 10 8 7 7 6 6 9 10 8 10 10 8 9 10 11 14 12 7 4 10 13 14 12 10 10 9 7 5 5 10 12 8 5 7 12 15 14 16 17 15 14 14 16 16 16 14 13 13
19 20 21 19 17 17 16 15 13 10 8 7 9 9 7 7 5 4 6 5 2 3 4 6 6 8 10 11 20 19 6 9 11 14 22 19 17 15 10 10 10 10 11 11 8 4 5 11 11 11 11 8 11 11 10 14 12 4 4 9 10 12 13 10 10 8 7 7 7 9 11 8 5 7 10 11 12 14 13 13 12 11 14 14 15 15 15 17
18 19 21 20 17 14 14 14 12 9 9 10 12 10 7 6 5 6 7 4 3 4 5 6 7 10 13 12 15 17 13 9 7 14 21 19 18 17 10 7 9 10 10 12 13 5 1 5 7 10 12 7 5 4 5 11 12 3 4 9 8 8 9 8 8 7 6 7 9 10 11 10 6 7 9 9 10 10 8 7 9 11 14 14 15 16 17 19
18 20 21 21 16 11 10 9 6 4 7 11 11 8 7 6 5 8 7 2 4 5 7 7 8 10 14 13 11 14 14 10 9 14 15 14 16 15 10 7 7 8 7 9 12 9 5 7 6 10 14 6 1 4 5 10 11 6 6 9 8 7 7 7 7 6 6 7 9 10 11 11 7 4 7 11 10 7 8 9 9 10 13 14 13 14 16 16
18 20 20 19 15 11 9 7 6 5 6 7 8 8 8 7 7 8 6 3 3 5 7 7 9 10 13 13 11 14 14 10 12 14 12 11 11 11 10 8 7 7 7 7 9 9 9 9 9 12 13 9 7 7 8 8 9 8 8 9 7 6 6 7 7 6 7 6 6 8 10 10 6 2 4 7 8 5 5 8 8 9 13 15 13 14 16 14
18 19 19 17 13 10 9 10 12 12 8 6 7 9 8 7 8 9 9 7 2 3 2 5 8 9 12 12 11 14 14 10 13 14 13 13 11 11 13 13 11 9 7 7 9 8 7 9 13 13 10 11 11 8 7 8 9 10 9 8 7 6 6 7 7 7 8 6 5 6 6 7 7 6 9 7 6 4 4 6 7 10 14 16 16 17 15 13
18 17 16 13 9 7 8 7 9 11 9 8 8 9 10 9 8 9 10 11 6 3 3 5 7 9 10 10 9 13 13 10 14 14 13 14 10 10 13 14 15 12 7 7 8 8 9 8 12 12 9 12 14 12 7 6 9 10 10 8 7 6 5 6 6 5 6 6 7 7 5 6 6 5 9 10 11 9 5 4 6 8 12 15 17 18 14 11
17 15 12 8 5 5 6 5 5 6 9 11 9 8 10 9 8 9 9 11 10 7 7 6 8 10 10 10 10 12 13 10 14 15 12 12 11 10 11 12 15 13 9 7 6 7 10 7 11 16 12 12 15 14 11 8 8 9 9 9 8 7 6 4 2 1 2 4 5 7 4 3 3 3 5 8 13 15 13 11 10 10 12 14 15 16 13 12
13 11 8 3 2 4 5 5 6 4 9 12 9 9 10 8 8 9 7 7 11 10 10 9 9 10 9 8 9 13 15 12 13 13 10 12 13 12 12 11 13 14 11 7 5 5 8 6 9 16 14 11 14 14 13 10 6 5 7 9 7 6 6 5 3 3 2 5 4 5 5 4 6 4 3 5 8 12 14 12 10 9 10 12 16 17 15 13
8 6 4 1 3 6 7 8 6 5 11 12 9 8 9 9 12 12 7 4 8 9 10 9 8 9 9 8 9 11 13 11 11 11 10 11 12 12 14 12 13 16 13 10 5 4 6 5 6 13 13 13 12 10 11 12 8 5 6 8 6 4 5 5 4 3 5 7 6 6 7 7 6 5 8 11 9 9 10 9 9 8 9 11 14 17 17 17
7 6 5 4 6 10 11 10 6 8 11 10 10 10 10 10 14 15 9 5 7 8 10 9 6 8 10 9 7 9 11 9 10 11 9 9 7 8 13 12 13 16 15 13 7 3 6 6 5 10 13 13 11 8 10 10 12 10 5 5 6 5 5 5 4 4 6 7 6 7 8 8 5 4 10 13 10 9 9 8 9 7 8 11 13 17 19 19
6 7 6 3 8 12 11 9 9 11 11 9 9 9 10 12 15 16 11 6 8 9 9 10 9 8 8 9 9 8 7 9 10 9 9 8 5 3 6 7 10 15 15 14 9 4 5 5 4 8 10 10 9 8 9 8 11 12 8 6 7 5 4 5 4 5 7 6 6 7 8 5 2 2 7 10 8 9 9 7 8 8 9 12 12 14 17 17
6 7 3 1 8 10 4 9 11 11 10 9 9 9 10 13 15 16 12 8 9 9 8 10 11 8 6 10 11 6 3 7 8 5 5 6 6 4 4 5 6 10 8 8 8 6 6 5 4 6 8 7 7 8 11 10 9 10 9 8 8 5 4 5 5 5 6 6 5 7 6 3 5 7 5 9 8 9 9 8 8 9 12 14 14 14 14 14
9 6 2 3 5 5 2 8 9 9 8 8 10 11 11 10 11 13 14 12 11 10 10 10 9 8 8 9 9 7 5 6 6 4 5 5 4 5 5 4 4 6 5 6 8 6 5 6 6 6 6 7 7 8 13 13 9 7 9 10 9 8 6 6 7 6 6 6 5 6 3 4 4 6 5 9 8 9 11 10 9 11 14 15 15 14 14 14
9 4 4 4 4 1 2 6 7 8 8 8 10 11 9 6 7 11 13 13 12 11 11 10 8 8 9 7 7 7 8 7 7 7 6 3 3 4 7 9 7 7 6 7 6 1 1 3 6 8 8 7 4 3 5 7 8 8 8 9 9 9 7 7 7 6 6 7 6 7 4 3 2 4 3 6 7 9 12 13 12 13 15 15 15 15 14 14
6 2 4 5 4 3 6 6 6 8 7 10 12 11 9 6 7 11 13 11 10 10 10 9 8 9 9 8 8 8 6 7 9 7 5 5 2 6 7 13 10 7 6 5 3 3 1 4 7 8 8 7 5 3 4 5 7 9 8 7 8 9 8 8 7 5 6 7 7 7 5 3 3 2 1 6 10 11 13 14 14 14 15 15 15 15 15 15
5 2 2 5 6 4 6 5 5 5 6 9 10 9 10 10 9 11 12 11 10 9 9 9 8 9 10 8 8 8 7 6 7 7 5 7 5 7 7 8 8 7 5 2 3 3 3 4 6 7 7 7 8 7 6 7 7 8 9 9 11 11 11 9 6 5 7 7 7 6 3 3 3 1 2 7 10 11 12 14 13 14 15 14 14 15 14 14
6 2 1 5 6 4 3 5 6 5 6 8 8 8 10 11 10 10 10 10 9 7 6 8 7 8 8 8 8 9 9 6 5 7 5 5 8 9 10 8 7 6 6 7 8 6 2 1 2 5 5 4 5 4 3 5 6 7 10 10 10 12 13 9 5 6 7 7 9 7 2 5 4 4 6 7 9 10 11 12 12 12 14 13 13 13 13 13
6 2 3 4 5 6 5 6 7 6 5 5 6 6 7 7 8 9 8 7 7 7 7 7 6 6 8 9 9 9 11 9 7 6 6 4 8 8 8 9 8 6 14 14 11 8 3 2 2 2 2 1 3 6 9 8 6 9 12 12 9 10 11 9 7 8 6 6 9 6 8 11 8 8 8 7 9 9 8 9 10 12 13 13 13 13 13 12
5 3 5 4 4 7 6 7 9 6 4 4 3 4 5 7 5 5 7 6 5 7 8 6 6 7 8 9 9 9 11 11 9 7 8 7 3 5 5 6 6 13 17 13 10 7 3 4 5 4 3 2 4 8 13 13 9 8 7 7 8 8 8 8 8 6 4 4 5 3 13 14 10 10 10 8 8 8 6 8 10 11 12 14 13 13 12 12
4 4 6 4 3 6 5 7 10 7 6 7 3 1 4 6 4 2 4 5 5 6 6 5 7 8 9 9 8 8 9 10 9 6 7 7 2 4 6 7 9 11 10 9 8 6 4 5 7 7 8 6 4 7 11 12 9 5 4 3 2 3 6 6 5 3 4 3 2 8 14 12 10 10 10 9 8 7 7 9 11 12 12 13 13 13 13 12
4 4 6 5 3 5 5 7 11 6 8 9 4 3 3 1 3 2 2 3 3 2 4 4 6 7 8 9 8 6 4 5 6 3 3 5 3 4 5 5 8 10 11 7 6 4 4 3 7 8 9 8 6 6 6 8 8 6 4 5 5 4 4 3 4 4 4 6 9 13 16 13 9 8 8 8 8 8 9 10 11 12 12 13 14 15 15 14
6 4 4 5 7 7 6 6 8 5 6 9 7 7 6 3 4 4 4 4 2 4 5 2 3 4 3 3 2 1 4 5 2 1 3 4 2 3 2 1 3 9 11 7 5 4 3 3 6 6 7 7 8 7 7 7 7 7 5 6 6 5 6 7 7 7 8 11 12 14 16 12 8 8 9 7 8 9 10 11 12 11 12 14 14 16 17 16
7 4 4 3 4 6 7 7 6 5 6 7 6 8 8 6 5 4 8 10 7 6 7 5 4 3 4 7 8 8 7 7 6 3 3 4 3 1 1 2 3 5 8 7 5 5 5 3 4 6 7 5 7 8 8 8 7 9 8 6 5 4 6 6 6 7 6 9 11 11 10 8 8 10 11 10 10 12 13 13 12 11 11 13 14 15 16 16
6 4 4 5 3 5 4 5 7 6 5 6 4 6 7 8 7 4 4 7 10 10 9 8 6 2 5 9 10 9 7 6 5 3 3 3 2 1 1 2 3 3 5 6 4 4 5 5 4 6 6 6 7 9 7 6 7 7 8 6 2 3 5 5 7 9 9 4 6 6 7 9 11 12 10 10 12 14 16 16 14 15 16 17 18 18 17 17
Wind_Direction
359 353 345 336 329 321 317 312 311 316 319 320 320 326 335 345 352 355 358 356 359 359 347 336 323 315 313 313 309 303 298 289 286 277 273 273 250 249 242 230 217 207 197 178 174 185 190 199 202 200 206 208 215 224 216 211 221 224 227 238 238 237 239 246 224 210 264 81 99 105 170 252 193 175 228 204 208 180 163 161 142 139 101 114 134 145 151 153
9 4 355 344 334 324 319 314 312 308 306 310 310 314 322 336 345 349 358 358 4 7 1 354 340 330 324 317 315 308 299 295 291 278 271 259 239 244 232 223 206 197 188 176 183 191 190 196 198 195 204 210 209 217 216 206 216 225 225 234 234 241 242 255 292 304 343 38 71 108 171 259 196 161 207 200 191 178 170 165 164 143 107 121 134 139 145 154
15 11 4 355 345 333 324 320 316 305 299 302 305 306 311 324 334 341 351 357 6 9 7 4 357 351 335 325 319 305 306 308 296 282 264 229 221 225 222 210 194 191 184 181 190 194 196 198 196 197 206 215 208 209 215 200 208 224 229 237 231 243 256 308 321 306 360 348 317 94 193 247 144 164 202 196 185 182 173 162 172 153 141 154 145 142 149 156
14 13 11 4 353 343 334 327 319 310 301 297 300 301 302 310 318 329 337 350 4 7 9 4 4 3 347 336 321 315 324 309 284 243 186 183 169 201 221 195 186 181 172 183 200 199 203 204 199 202 211 221 211 208 213 201 204 219 225 241 237 242 268 252 221 242 254 292 300 2 239 207 146 177 200 194 186 183 170 167 172 161 170 167 149 148 153 158
8 10 11 8 2 353 342 333 325 317 310 301 296 293 295 298 304 317 322 333 352 1 6 359 5 5 355 349 325 329 332 310 136 131 161 169 133 104 199 186 179 167 163 191 210 203 209 210 204 206 218 227 215 209 215 211 210 224 227 238 250 264 292 252 203 211 216 242 257 245 243 220 152 189 197 200 194 182 174 176 172 161 171 165 150 151 155 165
2 4 5 7 5 359 350 339 332 325 320 310 298 290 290 291 296 304 309 318 334 348 357 353 1 3 360 355 331 334 303 286 92 187 212 171 160 76 128 172 171 164 171 208 209 205 212 213 209 208 218 229 225 217 215 215 210 228 234 231 249 261 271 255 181 171 221 230 228 229 262 305 230 209 186 200 192 172 160 157 160 152 162 162 153 156 159 171
356 357 357 360 1 1 356 345 337 329 324 317 306 295 288 288 291 294 299 307 317 332 344 344 351 354 356 353 337 302 257 269 275 220 214 192 194 100 115 158 166 168 185 212 202 203 209 210 212 211 217 226 230 223 217 220 213 225 243 231 238 240 239 251 222 188 215 229 231 245 278 239 234 220 176 200 182 149 139 141 169 151 157 164 158 160 164 173
352 352 351 352 353 356 356 351 343 332 328 322 314 303 290 285 284 288 292 297 305 315 327 332 339 342 345 351 334 273 250 250 226 225 228 214 197 137 132 151 166 174 194 210 202 204 207 210 213 213 220 225 232 228 219 225 219 222 242 244 237 230 234 242 242 231 219 225 231 239 250 230 230 233 192 209 181 161 173 169 190 176 159 161 160 166 166 174
347 346 346 346 346 348 350 352 347 337 332 326 320 310 297 285 280 283 285 290 296 301 313 319 324 330 333 340 317 278 246 198 230 244 243 217 197 166 148 157 171 184 202 211 208 210 210 214 215 217 229 232 235 232 222 226 220 218 234 243 241 230 234 236 236 236 227 225 227 228 234 228 227 246 235 217 185 170 184 181 191 186 171 164 162 166 167 177
343 343 342 340 341 340 342 345 346 343 335 328 324 315 305 294 284 281 280 284 288 293 301 305 313 319 327 330 298 276 165 130 248 243 229 208 192 171 162 176 182 194 209 211 212 214 216 221 217 223 238 247 247 237 226 225 223 226 234 238 238 233 232 231 231 230 228 224 222 226 229 225 214 215 234 209 176 176 188 188 193 189 180 167 160 166 172 174
340 339 337 336 336 335 336 337 339 341 338 332 326 319 313 304 294 285 280 279 281 288 292 296 307 309 320 312 276 268 97 127 207 213 211 195 185 178 175 188 194 203 214 213 216 220 224 230 229 228 233 246 249 241 233 226 230 247 252 244 237 234 234 231 231 226 227 223 216 225 232 229 207 206 234 203 170 186 195 192 194 198 186 165 168 174 168 160
337 335 333 332 331 330 330 330 331 333 336 334 327 323 317 310 303 295 288 282 281 282 286 293 298 303 318 291 262 258 278 250 197 183 193 188 188 186 184 199 205 208 218 219 220 224 227 232 237 232 226 242 241 236 237 224 231 245 247 253 238 229 236 230 228 223 223 221 210 217 230 229 209 215 232 194 169 193 200 202 197 200 189 164 174 173 152 146
334 332 330 328 327 327 325 326 326 325 329 331 329 325 319 315 309 302 296 288 285 281 284 290 291 301 304 276 261 251 254 241 212 192 182 190 193 194 202 210 212 215 225 228 227 226 224 227 231 233 237 250 236 222 248 220 226 243 232 244 243 230 230 221 221 219 218 221 208 206 222 226 211 220 223 184 176 205 200 206 203 200 190 169 172 157 140 146
333 330 329 326 323 322 320 320 320 320 322 325 327 323 319 316 309 306 300 292 287 283 285 285 289 300 268 265 270 252 250 238 216 204 188 193 194 202 210 212 214 218 226 231 238 227 217 220 227 238 243 246 247 219 225 220 217 235 230 231 241 240 229 208 208 211 213 210 199 202 227 231 213 211 213 188 179 204 206 205 208 205 191 176 164 135 130 145
332 330 328 325 322 319 317 316 315 316 316 318 321 320 316 310 307 306 299 294 290 285 288 288 291 283 260 268 258 247 260 240 217 208 196 195 196 206 207 207 211 212 219 222 232 221 206 211 217 235 234 229 254 249 213 222 211 222 229 226 223 236 245 208 193 200 209 193 187 207 233 237 236 215 200 187 184 199 212 206 203 208 195 179 153 126 124 137
331 330 328 325 322 318 315 313 311 310 312 313 314 315 313 305 303 301 298 295 289 287 285 293 299 263 269 280 230 236 260 225 211 203 196 197 201 209 200 199 202 203 211 211 217 209 199 208 213 233 237 214 231 239 217 217 210 211 219 230 218 216 243 215 176 189 206 194 189 208 230 232 253 226 180 174 192 202 213 210 200 206 195 176 152 132 131 139
330 329 328 326 322 318 315 311 309 308 307 307 308 310 310 305 301 298 294 287 287 291 269 258 282 253 256 263 227 234 223 196 194 190 193 198 204 208 188 190 197 197 201 200 203 197 194 207 213 232 250 222 213 225 227 217 209 211 209 228 228 216 231 214 170 183 203 209 201 200 227 238 237 142 157 172 197 204 214 215 202 202 191 182 164 142 141 148
329 328 327 325 322 318 314 311 310 306 304 304 305 307 307 304 295 288 285 284 289 288 263 240 225 251 245 226 234 223 184 179 180 184 189 194 201 206 189 191 193 188 191 191 194 195 192 203 213 219 227 220 214 215 224 221 211 211 207 218 232 220 221 221 190 179 198 210 208 194 215 238 215 149 171 189 197 203 216 216 205 199 191 190 174 155 156 160
328 326 326 324 321 319 314 312 310 306 304 301 302 307 308 301 287 278 270 261 238 227 266 212 195 253 303 221 230 210 164 170 173 183 187 188 196 197 191 193 189 186 190 184 186 196 192 199 216 218 214 210 215 218 221 236 235 224 214 210 228 223 210 230 214 164 191 202 205 210 210 227 231 199 176 186 199 207 218 216 206 199 192 194 182 165 167 169
327 327 326 323 321 318 313 311 310 307 305 300 306 310 302 296 283 259 208 220 231 247 275 247 214 253 283 242 229 205 179 181 188 192 187 185 188 189 189 190 188 191 198 186 179 196 199 208 218 218 224 211 211 227 232 274 297 272 237 212 221 229 202 222 217 151 185 212 202 217 222 219 230 223 189 183 198 207 217 215 204 201 196 198 187 166 169 178
326 326 326 324 322 319 313 310 307 306 303 296 303 296 287 306 313 326 295 254 253 254 261 259 244 252 258 255 231 198 196 202 203 198 185 183 186 187 184 187 190 193 205 196 173 188 207 221 222 218 231 222 208 226 239 290 300 277 263 235 218 231 212 207 198 146 178 225 211 212 227 225 221 232 215 185 191 207 215 212 203 207 202 198 189 166 169 180
323 324 325 325 323 321 314 309 305 302 297 289 289 272 275 310 317 314 314 290 278 266 254 251 249 248 250 249 227 212 221 208 199 195 182 182 192 191 179 186 199 193 200 202 175 183 215 229 230 219 221 230 207 226 245 256 254 250 256 255 225 224 222 196 162 137 176 210 228 217 224 229 219 231 222 180 191 214 213 212 208 210 207 199 186 163 166 180
321 320 322 322 322 323 317 310 304 297 290 280 274 259 267 303 308 303 301 285 286 279 258 242 239 239 237 232 214 206 220 212 198 189 179 184 198 199 186 189 206 201 196 205 196 196 211 219 226 214 175 193 219 224 241 239 237 242 242 244 235 213 219 203 161 185 199 200 241 237 225 229 223 226 212 177 197 213 212 215 210 210 211 201 184 165 169 182
320 318 318 319 320 323 320 314 304 297 293 277 267 258 265 287 295 307 300 277 279 276 258 237 231 234 227 219 204 199 210 218 211 187 178 190 202 203 205 200 208 212 198 202 211 226 233 206 204 193 151 194 221 214 223 232 223 227 235 240 240 217 217 218 170 193 199 200 238 252 239 228 215 210 204 188 200 208 209 212 208 207 210 200 182 170 169 179
320 318 317 316 317 320 323 324 315 310 304 280 279 273 266 276 283 305 303 278 270 249 228 211 213 224 210 194 190 197 208 218 222 195 178 194 202 198 210 209 214 218 200 200 212 236 241 156 148 188 177 202 219 211 211 224 227 220 224 238 251 242 221 193 155 183 212 206 212 224 238 230 200 202 210 195 194 204 204 208 208 206 204 193 177 168 165 179
319 318 317 315 315 317 324 332 323 312 299 275 273 263 247 273 289 297 288 275 268 201 173 180 194 191 185 186 183 191 207 212 218 201 177 194 206 202 211 205 214 228 210 201 211 241 232 151 165 214 210 209 217 219 210 210 234 233 204 219 245 258 240 208 180 198 229 222 193 203 231 241 195 201 208 193 191 204 203 205 209 205 201 192 176 165 166 182
316 314 314 313 314 316 315 303 278 286 290 274 231 249 266 283 291 294 265 265 258 183 150 162 180 168 181 189 178 187 214 190 196 196 180 193 204 208 227 204 200 233 232 214 213 225 222 184 186 206 209 214 216 223 209 200 228 249 189 195 223 241 242 230 220 221 231 246 194 203 228 247 208 199 197 186 191 203 201 203 208 206 201 189 170 164 174 186
311 309 309 311 313 314 306 297 290 275 274 293 275 267 281 280 277 265 255 270 240 165 147 146 143 153 174 180 181 195 219 153 178 187 180 193 198 199 228 225 209 217 213 226 216 185 206 215 203 197 208 215 217 223 206 199 223 249 203 193 211 226 226 224 231 236 235 238 222 211 223 236 224 202 188 183 194 202 199 199 203 204 200 182 159 165 186 192
307 306 307 307 310 311 302 295 290 265 257 281 266 253 262 268 261 244 248 265 225 180 152 140 148 175 180 176 191 204 196 166 184 173 171 190 200 201 228 234 229 219 200 221 233 172 184 213 204 197 208 214 219 220 189 194 217 230 220 215 213 222 224 223 229 232 230 234 242 224 213 223 222 191 179 179 199 204 194 195 195 191 197 185 163 169 187 195
305 306 306 306 310 313 303 298 294 270 247 254 252 240 245 249 236 235 230 238 246 190 143 151 166 177 179 177 194 208 208 202 185 162 169 185 196 210 235 238 242 235 203 216 236 249 65 208 206 204 217 226 216 200 172 207 218 198 218 222 214 219 222 225 232 234 232 231 242 230 211 225 223 176 176 191 209 206 175 184 197 182 186 184 168 172 186 195
307 308 304 305 308 299 291 293 297 281 245 245 241 218 224 232 229 238 222 242 278 195 162 182 175 164 179 188 190 198 206 196 165 166 175 181 189 204 222 222 235 235 211 212 229 236 222 207 208 217 230 260 274 188 201 229 229 219 228 219 206 208 208 214 218 225 236 233 237 223 205 220 227 187 189 185 186 191 172 180 193 176 174 172 163 177 192 195
308 306 303 304 302 286 270 245 224 246 244 232 220 207 218 220 220 236 223 234 264 184 182 197 183 175 188 199 192 188 200 187 170 183 186 182 190 196 209 212 201 207 214 208 209 215 217 207 198 209 222 234 240 211 189 213 227 221 225 222 212 204 204 218 209 208 231 233 237 219 199 212 219 111 93 129 132 129 136 156 177 183 179 172 171 189 199 193
310 306 304 302 298 286 269 241 235 246 239 217 215 216 225 225 220 227 225 229 195 121 196 205 196 200 195 203 197 186 200 191 174 188 191 192 199 194 207 216 203 208 223 208 201 202 206 207 202 205 205 205 229 233 179 187 210 212 219 220 215 204 207 226 216 212 225 213 208 213 198 218 215 125 98 111 129 120 91 122 177 198 186 178 184 191 194 186
312 309 308 303 297 288 276 266 256 246 225 214 222 218 222 230 228 222 225 237 233 178 227 221 210 214 205 216 212 190 203 199 180 192 194 193 206 200 204 214 209 215 231 218 212 205 205 207 200 206 195 184 213 241 232 200 196 209 226 226 222 218 214 234 235 230 236 212 191 193 198 226 224 144 128 143 144 145 147 163 191 192 175 176 180 179 177 165
317 318 318 308 303 294 285 298 289 244 206 206 218 217 218 224 225 228 230 240 245 219 210 222 227 228 216 218 220 201 208 206 186 196 201 195 207 205 199 209 210 213 221 216 216 216 221 217 195 204 206 187 202 230 246 241 207 202 223 228 225 224 220 233 254 31 319 267 202 185 206 210 158 112 126 141 140 147 162 180 187 177 164 160 151 155 163 153
327 326 323 309 286 297 295 301 297 239 200 206 219 218 220 222 222 234 233 234 251 243 221 216 220 232 226 215 221 208 206 210 197 197 205 204 207 206 202 204 204 210 222 219 206 209 228 236 187 192 204 205 207 215 224 238 237 193 215 232 228 227 242 242 209 139 183 262 237 194 213 179 141 139 158 166 158 152 157 164 160 140 127 122 123 136 151 145
326 307 299 213 233 278 285 283 280 226 206 215 227 224 225 229 229 242 257 255 267 264 244 232 218 225 230 218 222 210 201 208 206 200 203 204 206 206 206 202 195 207 225 231 232 224 231 249 179 177 197 209 215 231 230 232 246 226 215 233 230 224 257 261 243 195 199 233 235 207 214 207 188 179 175 182 180 152 139 130 112 96 95 101 110 122 134 136
318 268 246 230 269 287 283 271 245 207 210 219 231 235 237 236 232 239 251 261 270 261 247 246 231 222 228 223 218 212 209 208 201 206 210 201 200 206 209 206 192 200 214 218 224 224 227 248 208 190 207 203 198 234 243 228 238 250 262 255 238 228 228 231 240 234 220 230 231 214 214 222 228 195 173 180 173 144 130 117 109 104 101 102 106 113 122 127
307 254 231 248 301 302 279 240 206 203 214 222 226 230 239 246 245 242 239 244 261 257 246 246 239 229 233 238 228 208 217 225 208 212 220 200 192 237 244 230 195 194 205 213 218 209 218 256 237 206 215 200 184 213 231 217 218 237 263 258 237 242 242 229 231 235 232 231 226 223 216 208 312 325 165 167 156 132 125 121 121 118 110 106 105 110 119 122
289 258 221 344 325 324 267 196 193 208 217 223 231 230 230 240 248 247 240 243 259 259 254 252 244 238 240 244 238 207 209 251 232 238 265 217 188 211 259 268 213 187 192 220 231 216 203 226 239 226 224 211 197 209 221 223 212 210 226 234 228 228 226 230 240 245 247 239 226 232 219 151 24 4 100 135 134 123 124 127 126 120 113 107 103 105 112 114
280 264 62 29 332 4 128 184 202 222 223 223 235 240 240 242 246 245 238 235 248 257 265 272 264 251 245 244 240 215 206 235 222 230 270 240 183 179 205 236 216 175 171 219 228 224 213 217 228 235 230 222 225 224 220 229 241 224 214 221 228 228 222 229 237 235 243 253 246 242 220 103 25 354 75 122 133 130 132 130 120 114 112 109 106 105 106 107
277 277 41 9 329 354 240 236 228 229 232 232 233 234 242 249 252 255 246 232 235 243 249 261 265 259 259 259 261 248 229 227 216 212 222 233 321 295 209 195 192 184 195 210 203 195 309 245 239 235 233 233 245 272 250 247 267 264 242 229 226 227 228 234 241 236 236 248 253 250 235 115 41 337 43 117 129 130 130 126 122 115 110 110 109 105 106 109
304 10 44 10 344 284 259 260 241 231 242 249 248 246 248 245 238 249 252 238 229 231 231 238 246 251 255 254 264 266 249 245 244 228 183 154 296 292 203 171 171 186 204 205 166 94 129 230 250 245 242 242 226 242 274 261 259 259 253 245 237 234 231 233 242 248 245 244 242 245 237 156 110 340 45 113 127 139 139 130 124 117 109 110 111 109 108 109
332 5 40 23 6 294 267 285 274 257 262 258 257 263 260 255 246 244 247 239 228 225 226 231 238 244 247 248 259 264 254 255 255 244 207 147 154 268 241 172 171 192 193 179 131 134 186 221 249 244 240 240 222 211 221 226 235 243 238 240 246 244 244 249 248 237 243 251 247 246 236 125 102 140 144 132 141 147 136 124 119 116 114 112 109 108 108 107
310 278 303 23 17 341 321 337 316 302 305 286 271 264 255 254 258 257 255 252 251 248 235 236 246 250 251 249 249 254 257 264 261 254 254 143 155 224 236 209 217 207 146 123 124 138 168 96 270 255 249 246 240 244 257 244 237 237 235 241 249 244 244 253 252 236 240 245 247 251 178 120 123 136 131 139 151 142 125 123 120 116 114 110 109 111 111 111
317 342 345 357 20 5 359 6 344 314 307 306 282 264 249 241 254 258 250 248 255 257 250 254 264 255 252 253 247 247 247 243 242 254 263 210 171 185 202 211 222 153 123 129 137 137 140 117 121 263 272 279 302 329 338 321 273 240 230 231 239 242 245 251 247 245 251 246 250 234 143 134 135 133 130 138 145 133 125 133 128 121 117 114 116 118 115 116
332 15 356 345 17 360 350 7 356 330 320 318 279 273 266 238 229 242 241 233 231 247 251 251 257 249 245 252 249 247 245 234 229 241 255 250 164 122 162 185 146 121 123 138 152 147 171 182 154 158 199 245 305 326 338 335 306 263 241 232 234 230 229 236 243 259 282 272 269 132 124 130 135 133 127 123 127 126 130 137 131 128 125 121 122 123 119 117
3 43 20 355 351 358 5 358 342 340 359 343 287 273 287 241 205 212 251 237 215 235 254 246 256 258 246 246 245 240 244 240 232 235 251 253 200 141 175 155 129 142 157 161 164 176 227 209 172 179 203 221 267 293 311 324 330 343 20 17 300 224 211 216 227 274 285 246 159 115 113 116 125 125 101 82 93 108 119 132 133 133 131 128 126 121 115 109
39 56 44 46 43 33 41 354 333 351 24 2 356 13 336 252 123 86 301 276 220 253 288 248 252 264 248 244 246 235 244 252 234 228 298 280 243 188 190 158 149 182 199 190 172 198 248 198 171 198 218 219 223 230 251 280 304 327 8 25 29 57 85 97 89 73 82 103 117 121 114 105 107 107 86 72 85 97 104 119 129 132 130 127 122 115 108 103
26 18 36 71 75 59 56 18 350 19 38 14 11 3 355 42 74 63 50 34 35 4 342 290 261 294 271 244 245 105 48 21 21 75 7 322 267 192 212 245 184 189 196 190 163 183 226 169 158 201 229 218 210 211 212 226 258 278 305 352 11 43 60 59 60 66 92 109 113 112 108 101 97 106 117 123 117 107 101 107 119 125 126 122 116 112 110 107
21 21 10 10 59 56 52 48 36 41 42 31 12 341 351 37 50 54 61 52 44 27 4 351 328 336 56 62 50 50 39 18 19 28 359 334 314 270 241 253 236 200 188 179 158 181 203 175 166 210 231 215 197 205 208 198 209 238 255 287 324 15 42 50 52 42 67 123 132 121 111 115 122 124 125 115 98 86 76 79 92 98 109 120 116 108 111 115
6 20 349 327 22 51 45 61 61 51 42 38 2 317 338 16 18 25 63 44 29 26 19 5 339 323 73 54 30 19 6 350 353 339 311 312 297 291 124 204 249 253 204 181 168 192 198 182 187 215 235 233 203 196 203 201 206 227 235 236 228 96 78 66 59 39 29 72 143 135 116 121 127 127 117 92 77 71 62 58 62 62 65 78 83 76 76 90